Location: Wildlife_Club
(35.6000°N, 81.4330°W)
Time: 11:01:22
(UTC-04:00)

A-11 Canister half - Pass Details

Date: 21 June 2019
Orbit: 1526 x 1683 km, 47.3° (Epoch: 19 August)

Event Time Altitude Azimuth Distance (km) Brightness Sun altitude
Exits shadow 05:02:31 13° 215° (SW) 3,509 10.3 -12.1°
Maximum altitude 05:11:02 64° 138° (SE) 1,691 9.2 -10.8°
Drops below altitude 10° 05:20:12 10° 60° (ENE) 3,701 12.6 -9.3°
Sets 05:23:15 0° 57° (ENE) 4,680 14.0 -8.8°
